Weather History for Kansas City International, MO

Change the Weather History Date:

Friday, October 4, 2013

  Actual Average Record
Temperature  
Mean Temperature 73 °F 60 °F  
Max Temperature 86 °F 71 °F 92 °F (1938)
Min Temperature 60 °F 50 °F 35 °F (1999)
Degree Days  
Heating Degree Days 0 6  
Month to date heating degree days 0 23  
Since 1 July heating degree days 19 90  
Cooling Degree Days 8 2  
Month to date cooling degree days 27 8  
Year to date cooling degree days 1344 1340  
Growing Degree Days 25 (Base 50)    
Moisture  
Dew Point 65 °F    
Average Humidity 68    
Maximum Humidity 84    
Minimum Humidity 51    
Precipitation  
Precipitation 1.40 in 0.12 in 2.83 in (1998)
Month to date precipitation 2.05 0.50  
Year to date precipitation 29.56 32.52  
Snow  
Snow 0.00 in 0.00 in 0.00 in ()
Month to date snowfall 0.0 0.0  
Since 1 July snowfall 0.0 0.0  
Since 1 September snowfall 0.0 0.0  
Snow Depth 0.00 in    
Sea Level Pressure  
Sea Level Pressure 29.80 in    
Wind  
Wind Speed 15 mph (SSW)    
Max Wind Speed 28 mph    
Max Gust Speed 39 mph    
Visibility 9 miles    
Events Rain , Thunderstorm    
T = Trace of Precipitation, MM = Missing Value Source: NWS Daily Summary

Daily Weather History Graph

Daily Weather History Graph

Search for Another Location

Airport:

Trip Planner

Search our weather history database for the weather conditions in past years. The results will help you decide how hot, cold, wet, or windy it might be!

Date:

Astronomy

Oct. 04, 2013 Rise Set
Actual Time 7:18 AM CDT 6:56 PM CDT
Civil Twilight 6:51 AM CDT 7:23 PM CDT
Nautical Twilight 6:20 AM CDT 7:54 PM CDT
Astronomical Twilight 5:49 AM CDT 8:25 PM CDT
Moon 6:54 AM CDT (10/4) 6:39 PM CDT (10/4)
Length of Visible Light 12h 31m
Length of Day
11h 38m
Waning Crescent, 0% of the Moon is Illuminated
Oct 4
Waning Crescent
Oct 4
New
Oct 11
First Quarter
Oct 18
Full
Oct 26
Last Quarter

Hourly Weather History & Observations

Time (CDT) Temp. Heat Index Dew Point Humidity Pressure Visibility Wind Dir Wind Speed Gust Speed Precip Events Conditions
12:53 AM 73.9 °F - 64.9 °F 73% 29.78 in 10.0 mi South 15.0 mph 23.0 mph N/A   Scattered Clouds
1:53 AM 72.0 °F - 64.9 °F 78% 29.78 in 10.0 mi South 13.8 mph - N/A   Scattered Clouds
2:53 AM 71.1 °F - 64.9 °F 81% 29.78 in 10.0 mi South 13.8 mph - N/A   Scattered Clouds
3:53 AM 70.0 °F - 64.9 °F 84% 29.77 in 10.0 mi South 13.8 mph - N/A   Scattered Clouds
4:53 AM 71.1 °F - 66.0 °F 84% 29.77 in 10.0 mi South 17.3 mph 24.2 mph N/A   Scattered Clouds
5:53 AM 71.1 °F - 66.0 °F 84% 29.77 in 10.0 mi South 17.3 mph 25.3 mph N/A   Scattered Clouds
6:53 AM 72.0 °F - 66.0 °F 81% 29.78 in 10.0 mi South 13.8 mph - N/A   Overcast
7:53 AM 72.0 °F - 66.0 °F 81% 29.79 in 10.0 mi South 18.4 mph 23.0 mph N/A   Overcast
8:03 AM 71.6 °F - 66.2 °F 83% 29.81 in 10.0 mi South 16.1 mph 23.0 mph N/A   Overcast
8:24 AM 71.6 °F - 66.2 °F 83% 29.82 in 10.0 mi South 15.0 mph 23.0 mph N/A   Overcast
8:53 AM 72.0 °F - 66.9 °F 84% 29.79 in 10.0 mi South 13.8 mph - N/A   Overcast
9:53 AM 75.0 °F - 68.0 °F 79% 29.78 in 10.0 mi South 16.1 mph - N/A   Overcast
10:53 AM 77.0 °F - 68.0 °F 74% 29.78 in 10.0 mi South 19.6 mph 25.3 mph N/A   Overcast
11:27 AM 78.8 °F - 69.8 °F 74% 29.81 in 10.0 mi South 16.1 mph 24.2 mph N/A   Mostly Cloudy
11:53 AM 78.1 °F - 69.1 °F 74% 29.78 in 10.0 mi South 16.1 mph 23.0 mph N/A   Mostly Cloudy
12:53 PM 81.0 °F 83.8 °F 68.0 °F 65% 29.76 in 10.0 mi South 24.2 mph 29.9 mph N/A   Mostly Cloudy
1:53 PM 82.0 °F 84.9 °F 68.0 °F 62% 29.74 in 10.0 mi South 18.4 mph 25.3 mph N/A   Mostly Cloudy
2:53 PM 84.0 °F 87.0 °F 68.0 °F 58% 29.73 in 10.0 mi South 18.4 mph 27.6 mph N/A   Mostly Cloudy
3:53 PM 86.0 °F 88.8 °F 66.9 °F 53% 29.72 in 10.0 mi South 19.6 mph 27.6 mph N/A   Mostly Cloudy
4:53 PM 84.9 °F 86.6 °F 64.9 °F 51% 29.70 in 10.0 mi South 20.7 mph 26.5 mph N/A   Partly Cloudy
5:53 PM 81.0 °F 82.5 °F 64.0 °F 56% 29.72 in 10.0 mi South 16.1 mph - N/A   Scattered Clouds
6:53 PM 79.0 °F - 64.0 °F 60% 29.76 in 10.0 mi South 13.8 mph - N/A   Mostly Cloudy
7:53 PM 73.9 °F - 64.9 °F 73% 29.77 in 10.0 mi South 6.9 mph - N/A   Overcast
8:53 PM 78.1 °F - 64.9 °F 64% 29.79 in 10.0 mi South 12.7 mph - N/A   Overcast
9:12 PM 69.8 °F - 60.8 °F 73% 29.86 in 7.0 mi WSW 18.4 mph 29.9 mph 0.00 in Rain , Thunderstorm Light Thunderstorms and Rain
9:25 PM 64.4 °F - 62.6 °F 94% 29.85 in 2.0 mi WSW 16.1 mph 24.2 mph 0.19 in Rain , Thunderstorm Heavy Thunderstorms and Rain
9:28 PM 64.4 °F - 62.6 °F 94% 29.86 in 2.0 mi WSW 20.7 mph 34.5 mph 0.24 in Rain , Thunderstorm Heavy Thunderstorms and Rain
9:42 PM 66.2 °F - 62.6 °F 88% 29.89 in 1.2 mi SW 18.4 mph 32.2 mph 0.62 in Rain , Thunderstorm Heavy Thunderstorms and Rain
9:53 PM 68.0 °F - 61.0 °F 78% 29.85 in 1.0 mi South 9.2 mph 39.1 mph 1.13 in Rain , Thunderstorm Heavy Thunderstorms and Rain
10:09 PM 66.2 °F - 62.6 °F 88% 29.89 in 10.0 mi South 9.2 mph - 0.07 in Rain , Thunderstorm Light Thunderstorms and Rain
10:31 PM 66.2 °F - 62.6 °F 88% 29.88 in 10.0 mi SSW 9.2 mph - 0.07 in   Mostly Cloudy
10:53 PM 66.0 °F - 64.0 °F 93% 29.87 in 9.0 mi SW 9.2 mph - 0.08 in Rain , Thunderstorm Light Thunderstorms and Rain
11:04 PM 66.2 °F - 64.4 °F 94% 29.88 in 2.0 mi SW 9.2 mph - 0.16 in Rain , Thunderstorm Heavy Thunderstorms and Rain
11:17 PM 66.2 °F - 64.4 °F 94% 29.89 in 7.0 mi SW 5.8 mph - 0.19 in Rain , Thunderstorm Light Thunderstorms and Rain
11:34 PM 66.2 °F - 62.6 °F 88% 29.91 in 10.0 mi SSW 6.9 mph - 0.19 in   Overcast
11:53 PM 66.0 °F - 63.0 °F 90% 29.88 in 10.0 mi SSW 6.9 mph - 0.19 in   Overcast